Weather in Bazaliya

Ukraine / Khmelnitsky District     49˚43′06″N   26˚28′14″E
temp.,
°C
wind,
m/s
gust,
m/s
humid.,
%
clouds,
%
prec.,
mm/h
press.,
hPa
HPBL,
m
29 november, sun
sun2923:00wsw3698100 0.5 1019294
02:00−1˚wnw369599 1.0 1019289
05:00−3˚w359783 0.1 1019191
08:00−2˚nw239591 0.3 1019253
11:00wsw2379100 0.0 1020538
14:00wsw2477100 0.1 1020571
17:00−1˚wsw2286100 0.1 102137
20:00−2˚wsw239091 0.1 102239
30 november, mon
mon3023:00−3˚sw239365 0.0 102244
02:00−3˚wsw229538 0.0 102435
05:00−3˚wsw12951 0.0 102421
08:00−4˚w22959 0.0 102540
11:00−1˚wnw348122 0.0 1026422
14:00wnw447745 0.0 1026598
17:00−2˚nw238286 0.0 1027516
20:00−2˚nw127893 0.0 1028556
1 december, tue
tue123:00−2˚nw2276100 0.0 1029372
02:00−4˚n128484 0.0 102929
05:00−4˚e12863 0.0 102821
08:00−4˚ese22882 0.0 102936
11:00−2˚ese34720 0.0 1029430
14:00ese34650 0.0 1028520
17:00−3˚e33790 0.0 102754
20:00−4˚e37860 0.0 1028181
2 december, wed
wed223:00−4˚e36900 0.0 1028166
02:00−4˚ene24936 0.0 1028122
05:00−4˚ene359762 0.0 1027158
08:00−3˚e249772 0.1 1027118
11:00e359090 0.1 1027289
14:00e348693 0.1 1025440
17:00−1˚e2492100 0.1 1025144
20:00−1˚e2596100 0.1 1025210
3 december, thu
thu323:00−1˚ese3595100 0.1 1025227
02:00−1˚se3693100 0.1 1024276
05:00−2˚se359597 0.1 1023247
08:00−1˚sse468898 0.1 1023430
11:00se578480 0.0 1023535
14:00sse588187 0.0 1021651
17:00sse6982100 0.0 1021629
20:00se61080100 0.0 1020672